map of TUD home
TUD - Airport
Location
City:  Tambacounda, Tambacounda, Senegal
Name:Tambacounda Airport
ICAO:GOTT
IATA:TUD

Details
Type:Airport (Aerodrome, Airfield)
Use:Public/Civil
Latitude:1344'13"N (13.736817)
Longitude:1339'11"W (-13.653121)
Datum:WGS 1984
Elevation:161 ft (49 m)
Variation:5.73W (WMM2015v2 magnetic declination)
0.15 annual change
Runways:1
Longest:6562 × 98 ft (2000 × 30 m), paved

Time
Time Zone:UTC+0
Local Time:

Weather
METAR:GOTT 041400Z 06004KT CAVOK 36/10 Q1010

Related Locations
Nearby:
Farthest:TOH: 12430 mi / 20004 km
Loh/Linua [Torres Airstrip], Linua Island, TOB, VU

Find:

   beyond  
but within

Other Information
Maps:
NOTAMs:
Links:
Sources:

  
  • flag of Senegal
  

Sectional Chart

Flight Planning
at skyvector.com

Satellite Image

Google Maps Satellite view

 

Copyright © 2004-2019 Karl L. Swartz. All rights reserved.
The Great Circle Mapper name and logo are trademarks of the Great Circle Mapper.
All other trademarks mentioned herein belong to their respective owners.
Please see credits for attibutions and further copyright information.

  Follow gcmap on Facebook Follow gcmap on Twitter GCmap on LinkedIn

hCard Microformat

Geo Microformat